User: anonymous   Login
Location: Tamazert
(32.6352°N, 5.2072°W)
Time: 07:25:08
(UTC+00:00)
Language:

CZ-4C R/B - Orbit

View from above orbital plane
View from above orbital plane
View from above satellite
View from above satellite

Ground track
Ground track

The orbit data is extracted from the following two-line orbital elements,

1 36416U 10009D   22230.68083845  .00000185  00000-0  10781-3 0  9995
2 36416  63.4107 228.9814 0572870 356.4715   3.2357 13.69716493622826
Epoch (UTC): 18 August 2022 16:20:24
Eccentricity: 0.0572870
inclination: 63.4107°
perigee height: 578 km
apogee height: 1423 km
right ascension of ascending node: 228.9814°
argument of perigee: 356.4715°
revolutions per day: 13.69716493
mean anomaly at epoch: 3.2357°
orbit number at epoch: 62282

The dashed part of the orbit path shows where the satellite is in the earth's shadow,  

DLR